Home > Weather > Canberra > Past weeks

Flag for Australia Past Weather in Canberra, Australian Capital Territory, Australia — Yesterday and Last 2 Weeks

Now
41 °F

Light rain. Mostly cloudy.


Feels Like: 37 °F
Forecast: 38 / 53 °F
Wind: 6 mph from South

Location: Canberra Airport

Current Time: Aug 24, 2016 at 10:25:10 PM

Latest Report: Aug 24, 2016 at 10:00 PM


Visibility: N/A

Pressure: 29.83 "Hg (27.79 "Hg at 577m altitude)

Humidity: 93%

Dew Point: 39 °F

Location of CanberraLocation

Past Weather in Canberra — Graph

°F

Canberra Temperature Yesterday

Maximum temperature yesterday: 57 °F (at 3:00 PM)
Minimum temperature yesterday: 41 °F (at 6:30 AM)
Average temperature yesterday: 48 °F

High & Low Weather Summary for the Past Weeks

 TemperatureHumidityPressure
High66 °F (Aug 19, 1:30 PM)100% (Aug 12, 1:30 AM)30.48 "Hg (Aug 12, 1:30 AM)
Low25 °F (Aug 12, 5:00 AM)34% (Aug 16, 3:00 PM)29.77 "Hg (Aug 19, 7:00 PM)
Average46 °F76%30.10 "Hg
* Reported Aug 9 9:00 PM — Aug 24 9:00 PM, Canberra, Weather by CustomWeather, © 2016

Note: Actual official high and low records may vary slightly from our data, if they occured in-between our weather recording intervals... More about our weather records

Advertising

Canberra Weather History for the Previous 24 Hours

Scroll right to see more
 ConditionsComfort  
Time TempWeatherWind HumidityBarometerVisibility
9:00 PM
Wed, Aug 24
41 °FLight rain. Mostly cloudy.5 mph100%29.83 "HgN/A
8:30 PM41 °FLight rain. Passing clouds.5 mph93%29.83 "HgN/A
8:00 PM43 °FRain. Partly cloudy.7 mph93%29.83 "Hg6 mi
7:30 PM43 °FRain. Passing clouds.5 mph100%29.83 "Hg6 mi
7:00 PM43 °FRain. Passing clouds.5 mph93%29.83 "Hg6 mi
6:30 PM43 °FLight rain. Passing clouds.8 mph93%29.83 "HgN/A
6:00 PM45 °FLight rain. Passing clouds.8 mph93%29.83 "HgN/A
5:30 PM45 °FRain. Partly cloudy.5 mph93%29.83 "Hg5 mi
5:00 PM46 °FPassing clouds.6 mph87%29.80 "HgN/A
4:30 PM46 °FLight rain. Broken clouds.7 mph87%29.80 "HgN/A
4:00 PM46 °FLight rain. Broken clouds.7 mph87%29.80 "HgN/A
3:30 PM48 °FLight rain. Broken clouds.6 mph76%29.80 "HgN/A
3:00 PM50 °FLight rain. More clouds than sun.8 mph71%29.80 "HgN/A
2:30 PM50 °FScattered showers. Broken clouds.9 mph71%29.80 "HgN/A
2:00 PM50 °FScattered showers. Broken clouds.8 mph71%29.80 "HgN/A
1:00 PM50 °FLight rain. Broken clouds.7 mph71%29.86 "HgN/A
12:30 PM50 °FScattered showers. Broken clouds.8 mph71%29.86 "HgN/A
12:00 PM50 °FScattered showers. Scattered clouds.6 mph67%29.86 "HgN/A
11:30 AM50 °FScattered showers. Scattered clouds.7 mph67%29.89 "HgN/A
11:00 AM50 °FScattered clouds.6 mph71%29.92 "HgN/A
10:30 AM50 °FScattered clouds.6 mph71%29.92 "HgN/A
10:00 AM48 °FBroken clouds.2 mph76%29.92 "HgN/A
9:30 AM48 °FBroken clouds.5 mph76%29.95 "HgN/A
9:00 AM48 °FBroken clouds.7 mph76%29.95 "HgN/A
8:30 AM46 °FScattered showers. Scattered clouds.5 mph87%29.95 "HgN/A
8:00 AM45 °FScattered showers. Partly sunny.3 mph93%29.95 "HgN/A
7:30 AM45 °FPartly sunny.6 mph93%29.95 "HgN/A
7:00 AM43 °FPartly sunny.6 mph100%29.95 "HgN/A
6:30 AM43 °FPartly sunny.3 mph93%29.95 "HgN/A
6:00 AM45 °FPartly sunny.5 mph87%29.95 "HgN/A
5:30 AM45 °FPassing clouds.6 mph93%29.95 "HgN/A
5:00 AM45 °FPassing clouds.No wind93%29.95 "HgN/A
4:30 AM45 °FSprinkles. Passing clouds.No wind93%29.95 "HgN/A
4:00 AM45 °FMostly cloudy.3 mph93%29.95 "HgN/A
3:30 AM45 °FMostly cloudy.No wind93%29.95 "HgN/A
3:00 AM45 °FMostly cloudy.6 mph93%29.95 "HgN/A
2:30 AM45 °FSprinkles. Mostly cloudy.6 mph93%29.95 "HgN/A
2:00 AM45 °FMostly cloudy.6 mph93%29.98 "HgN/A
1:30 AM45 °FSprinkles. Mostly cloudy.1 mph87%29.98 "HgN/A
1:00 AM45 °FMostly cloudy.5 mph93%29.98 "HgN/A
12:30 AM46 °FLight rain. Overcast.5 mph87%29.98 "HgN/A
12:00 AM45 °FMostly cloudy.3 mph93%30.01 "HgN/A
11:30 PM
Tue, Aug 23
46 °FPassing clouds.6 mph87%30.01 "HgN/A
11:00 PM46 °FMostly cloudy.No wind87%30.01 "HgN/A
10:30 PM46 °FMostly cloudy.3 mph82%30.01 "HgN/A
10:00 PM46 °FMostly cloudy.6 mph82%30.01 "HgN/A
Weather by CustomWeather, © 2016

See weather overviewHow to use our weather pages